Nyk Deneb — 3EOF8 — position and weather

sailwx.info

Track history (hours):
 
Tides and Currents Weather Stations Pressure Air Temp Water Temp Dewpoint Dewpoint Depression Visibility Wind Speed Wind Dir Waves Ship Positions

Nyk Deneb

Last reported at 2014-Sep-18 08:25 UTC. Time now 2014-Oct-01 16:22 UTC.
Position N 32°02' W 080°55'.
Warning: this ship's position is 13 days out of date.

Length 294 m; draft 11.7 m.

Type: Ship (hazmat cat A). MMSI: 355717000.

Date/timePositionNaut miles runAvg speedWind from/ knotsBaromVisibWave heightAir tempDewpointWater temp
2014-Sep-18 08:25N 32°02' W 080°55'7 8.6
2014-Sep-18 07:33N 32°05' W 081°03'5 4.8
2014-Sep-18 06:33N 32°07' W 081°08'0 0.0
2014-Sep-18 03:22N 32°07' W 081°08'0 0.0
2014-Sep-18 02:28N 32°07' W 081°08'0 0.0
2014-Sep-18 01:31N 32°07' W 081°08'0 0.0
2014-Sep-18 00:19N 32°07' W 081°08'0 0.0
2014-Sep-17 23:28N 32°07' W 081°08'0 0.0
2014-Sep-17 22:19N 32°07' W 081°08'0 0.0
2014-Sep-17 21:31N 32°07' W 081°08'0 0.0
2014-Sep-17 20:13N 32°07' W 081°08'0 0.0
2014-Sep-17 19:28N 32°07' W 081°08'0 0.0
2014-Sep-17 18:31N 32°07' W 081°08'0 0.0
2014-Sep-17 17:31N 32°07' W 081°08'0 0.0
2014-Sep-17 16:31N 32°07' W 081°08'0 0.0
2014-Sep-17 15:19N 32°07' W 081°08'0 0.0
2014-Sep-17 12:31N 32°07' W 081°08'0 0.0
2014-Sep-17 10:10N 32°07' W 081°08'0 0.0
2014-Sep-17 09:33N 32°07' W 081°08'2 1.9
2014-Sep-17 08:32N 32°06' W 081°07'7 6.8
2014-Sep-17 07:33N 32°05' W 080°59'38313.6
2014-Sep-16 03:18N 36°50' W 075°49'1214.4
2014-Sep-16 02:30N 36°57' W 076°00'1414.6
2014-Sep-16 01:33N 37°00' W 076°17'5 2.4
2014-Sep-15 23:28N 36°56' W 076°20'0 0.0
2014-Sep-15 14:22N 36°56' W 076°20'0 0.0
2014-Sep-15 11:29N 36°56' W 076°20'3 3.1
2014-Sep-15 10:32N 36°59' W 076°20'1312.8
2014-Sep-15 09:33N 36°58' W 076°04'1010.1
2014-Sep-15 08:32N 36°53' W 075°53'1110.8
2014-Sep-15 07:32N 36°49' W 075°40'105 3.7
2014-Sep-14 03:29N 38°12' W 074°19'8113.7
2014-Sep-13 21:33N 39°31' W 073°54'1313.3
2014-Sep-13 20:33N 39°44' W 073°53'1313.1
2014-Sep-13 19:33N 39°57' W 073°52'1313.1
2014-Sep-13 18:33N 40°10' W 073°50'1313.1
2014-Sep-13 17:33N 40°23' W 073°49'1111.2
2014-Sep-13 16:33N 40°31' W 073°59'7 5.9
2014-Sep-13 15:22N 40°37' W 074°04'0 0.0
2014-Sep-13 14:31N 40°37' W 074°04'0 0.0
2014-Sep-13 13:31N 40°37' W 074°04'0 0.1
2014-Sep-13 12:31N 40°37' W 074°04'0 0.2
2014-Sep-13 11:31N 40°37' W 074°04'0 0.2
2014-Sep-13 10:33N 40°37' W 074°03'5 4.7
2014-Sep-13 09:33N 40°39' W 074°09'2 1.6
2014-Sep-13 08:32N 40°39' W 074°11'0 0.0
2014-Sep-13 07:31N 40°39' W 074°11'0 0.0
2014-Sep-13 06:30N 40°39' W 074°11'0 0.0
2014-Sep-13 05:33N 40°39' W 074°11'0 0.0
2014-Sep-13 04:33N 40°39' W 074°11'0 0.0
2014-Sep-13 03:33N 40°39' W 074°11'0 0.0
2014-Sep-13 02:30N 40°39' W 074°11'0 0.0
2014-Sep-13 01:33N 40°39' W 074°11'0 0.0
2014-Sep-13 00:32N 40°39' W 074°11'0 0.0
2014-Sep-12 23:33N 40°39' W 074°11'0 0.0
2014-Sep-12 22:31N 40°39' W 074°11'0 0.0
2014-Sep-12 20:21N 40°39' W 074°11'0 0.0
2014-Sep-12 19:33N 40°39' W 074°11'0 0.0
2014-Sep-12 18:27N 40°39' W 074°11'0 0.0
2014-Sep-12 17:30N 40°39' W 074°11'0 0.0
2014-Sep-12 16:32N 40°39' W 074°11'0 0.0
2014-Sep-12 15:33N 40°39' W 074°11'6 5.4
2014-Sep-12 14:32N 40°39' W 074°04'1510.8
2014-Sep-12 13:09N 40°28' W 073°51'5 8.0
2014-Sep-12 12:33N 40°24' W 073°48'1111.3
2014-Sep-12 11:33N 40°13' W 073°45'1212.3
2014-Sep-12 10:33N 40°01' W 073°43'1111.1
2014-Sep-12 09:33N 39°50' W 073°42'1313.4
2014-Sep-12 08:33N 39°36' W 073°41'1313.3
2014-Sep-12 07:33N 39°23' W 073°41'1313.2
2014-Sep-12 06:33N 39°10' W 073°40'1313.2
2014-Sep-12 05:32N 38°56' W 073°40'3913.1
2014-Sep-12 02:32N 38°17' W 073°39'1513.4
2014-Sep-12 01:25N 38°02' W 073°39'  
Track history (hours):
 
Tides and Currents Weather Stations Pressure Air Temp Water Temp Dewpoint Dewpoint Depression Visibility Wind Speed Wind Dir Waves Ship Positions

Nyk Deneb

Last reported at 2014-Sep-18 08:25 UTC. Time now 2014-Oct-01 16:22 UTC.
Position N 32°02' W 080°55'.
Warning: this ship's position is 13 days out of date.

Length 294 m; draft 11.7 m.

Type: Ship (hazmat cat A). MMSI: 355717000.

Date/timePositionNaut miles runAvg speedWind from/ knotsBaromVisibWave heightAir tempDewpointWater temp
2014-Sep-18 08:25N 32°02' W 080°55'7 8.6
2014-Sep-18 07:33N 32°05' W 081°03'5 4.8
2014-Sep-18 06:33N 32°07' W 081°08'0 0.0
2014-Sep-18 03:22N 32°07' W 081°08'0 0.0
2014-Sep-18 02:28N 32°07' W 081°08'0 0.0
2014-Sep-18 01:31N 32°07' W 081°08'0 0.0
2014-Sep-18 00:19N 32°07' W 081°08'0 0.0
2014-Sep-17 23:28N 32°07' W 081°08'0 0.0
2014-Sep-17 22:19N 32°07' W 081°08'0 0.0
2014-Sep-17 21:31N 32°07' W 081°08'0 0.0
2014-Sep-17 20:13N 32°07' W 081°08'0 0.0
2014-Sep-17 19:28N 32°07' W 081°08'0 0.0
2014-Sep-17 18:31N 32°07' W 081°08'0 0.0
2014-Sep-17 17:31N 32°07' W 081°08'0 0.0
2014-Sep-17 16:31N 32°07' W 081°08'0 0.0
2014-Sep-17 15:19N 32°07' W 081°08'0 0.0
2014-Sep-17 12:31N 32°07' W 081°08'0 0.0
2014-Sep-17 10:10N 32°07' W 081°08'0 0.0
2014-Sep-17 09:33N 32°07' W 081°08'2 1.9
2014-Sep-17 08:32N 32°06' W 081°07'7 6.8
2014-Sep-17 07:33N 32°05' W 080°59'38313.6
2014-Sep-16 03:18N 36°50' W 075°49'1214.4
2014-Sep-16 02:30N 36°57' W 076°00'1414.6
2014-Sep-16 01:33N 37°00' W 076°17'5 2.4
2014-Sep-15 23:28N 36°56' W 076°20'0 0.0
2014-Sep-15 14:22N 36°56' W 076°20'0 0.0
2014-Sep-15 11:29N 36°56' W 076°20'3 3.1
2014-Sep-15 10:32N 36°59' W 076°20'1312.8
2014-Sep-15 09:33N 36°58' W 076°04'1010.1
2014-Sep-15 08:32N 36°53' W 075°53'1110.8
2014-Sep-15 07:32N 36°49' W 075°40'105 3.7
2014-Sep-14 03:29N 38°12' W 074°19'8113.7
2014-Sep-13 21:33N 39°31' W 073°54'1313.3
2014-Sep-13 20:33N 39°44' W 073°53'1313.1
2014-Sep-13 19:33N 39°57' W 073°52'1313.1
2014-Sep-13 18:33N 40°10' W 073°50'1313.1
2014-Sep-13 17:33N 40°23' W 073°49'1111.2
2014-Sep-13 16:33N 40°31' W 073°59'7 5.9
2014-Sep-13 15:22N 40°37' W 074°04'0 0.0
2014-Sep-13 14:31N 40°37' W 074°04'0 0.0
2014-Sep-13 13:31N 40°37' W 074°04'0 0.1
2014-Sep-13 12:31N 40°37' W 074°04'0 0.2
2014-Sep-13 11:31N 40°37' W 074°04'0 0.2
2014-Sep-13 10:33N 40°37' W 074°03'5 4.7
2014-Sep-13 09:33N 40°39' W 074°09'2 1.6
2014-Sep-13 08:32N 40°39' W 074°11'0 0.0
2014-Sep-13 07:31N 40°39' W 074°11'0 0.0
2014-Sep-13 06:30N 40°39' W 074°11'0 0.0
2014-Sep-13 05:33N 40°39' W 074°11'0 0.0
2014-Sep-13 04:33N 40°39' W 074°11'0 0.0
2014-Sep-13 03:33N 40°39' W 074°11'0 0.0
2014-Sep-13 02:30N 40°39' W 074°11'0 0.0
2014-Sep-13 01:33N 40°39' W 074°11'0 0.0
2014-Sep-13 00:32N 40°39' W 074°11'0 0.0
2014-Sep-12 23:33N 40°39' W 074°11'0 0.0
2014-Sep-12 22:31N 40°39' W 074°11'0 0.0
2014-Sep-12 20:21N 40°39' W 074°11'0 0.0
2014-Sep-12 19:33N 40°39' W 074°11'0 0.0
2014-Sep-12 18:27N 40°39' W 074°11'0 0.0
2014-Sep-12 17:30N 40°39' W 074°11'0 0.0
2014-Sep-12 16:32N 40°39' W 074°11'0 0.0
2014-Sep-12 15:33N 40°39' W 074°11'6 5.4
2014-Sep-12 14:32N 40°39' W 074°04'1510.8
2014-Sep-12 13:09N 40°28' W 073°51'5 8.0
2014-Sep-12 12:33N 40°24' W 073°48'1111.3
2014-Sep-12 11:33N 40°13' W 073°45'1212.3
2014-Sep-12 10:33N 40°01' W 073°43'1111.1
2014-Sep-12 09:33N 39°50' W 073°42'1313.4
2014-Sep-12 08:33N 39°36' W 073°41'1313.3
2014-Sep-12 07:33N 39°23' W 073°41'1313.2
2014-Sep-12 06:33N 39°10' W 073°40'1313.2
2014-Sep-12 05:32N 38°56' W 073°40'3913.1
2014-Sep-12 02:32N 38°17' W 073°39'1513.4
2014-Sep-12 01:25N 38°02' W 073°39'  

Dump ship's entire track history